When you browse on this site, cookies collect data to enhance your experience and personalize the content and advertising you see.
Visit our Privacy Policy to learn more. By continuing to use the site, you agree to this use of cookies and data.
  • Em Portugal
  • Lista de países
  • Para 7 dias
  • Temperatura da água
  • Mapa do tempo
  • Widgets de tempo
  • user-avatar
    Iniciar Sessão

    Previsão horária em Nizhniy Katruh

    Hoje, 23 Setembro, Segunda-feira

    Tempo Temperatura Precipitação Vento Pressão Humidade
    00:00 +2°C° 0 mm 2 m/s 603 mmHg 58%
    01:00 +2°C° 0 mm 2 m/s 603 mmHg 59%
    02:00 +2°C° 0 mm 2 m/s 603 mmHg 59%
    03:00 +3°C° 0 mm 2 m/s 603 mmHg 59%
    04:00 +3°C° 0 mm 2 m/s 603 mmHg 58%
    05:00 +3°C° 0 mm 2 m/s 603 mmHg 57%
    06:00 +3°C° 0 mm 2 m/s 603 mmHg 56%
    07:00 +5°C° 0 mm 2 m/s 604 mmHg 56%
    08:00 +7°C° 0 mm 2 m/s 605 mmHg 55%
    09:00 +9°C° 0 mm 2 m/s 606 mmHg 53%
    10:00 +10°C° 0 mm 2 m/s 606 mmHg 51%
    11:00 +12°C° 0 mm 2 m/s 606 mmHg 50%
    12:00 +12°C° 0 mm 3 m/s 606 mmHg 49%
    13:00 +12°C° 0 mm 3 m/s 606 mmHg 49%
    14:00 +13°C° 0 mm 2 m/s 605 mmHg 49%
    15:00 +13°C° 0 mm 2 m/s 605 mmHg 49%
    16:00 +9°C° 0 mm 2 m/s 604 mmHg 58%
    17:00 +7°C° 0 mm 2 m/s 603 mmHg 66%
    18:00 +6°C° 0 mm 1 m/s 602 mmHg 75%
    19:00 +5°C° 0 mm 1 m/s 602 mmHg 71%
    20:00 +5°C° 0 mm 1 m/s 603 mmHg 67%
    21:00 +5°C° 0 mm 1 m/s 603 mmHg 62%
    22:00 +5°C° 0 mm 1 m/s 603 mmHg 61%
    23:00 +5°C° 0 mm 1 m/s 603 mmHg 60%

    Amanhã, 24 Setembro, Terça-feira

    Tempo Temperatura Precipitação Vento Pressão Humidade
    00:00 +5°C° 0 mm 1 m/s 602 mmHg 58%
    01:00 +4°C° 0 mm 2 m/s 602 mmHg 59%
    02:00 +4°C° 0 mm 2 m/s 602 mmHg 59%
    03:00 +4°C° 0 mm 2 m/s 602 mmHg 60%
    04:00 +4°C° 0 mm 2 m/s 602 mmHg 61%
    05:00 +4°C° 0 mm 2 m/s 602 mmHg 62%
    06:00 +5°C° 0 mm 1 m/s 603 mmHg 63%
    07:00 +7°C° 0 mm 2 m/s 604 mmHg 59%
    08:00 +9°C° 0 mm 2 m/s 605 mmHg 55%
    09:00 +12°C° 0 mm 2 m/s 606 mmHg 51%
    10:00 +13°C° 0 mm 2 m/s 606 mmHg 49%
    11:00 +13°C° 0 mm 3 m/s 606 mmHg 48%
    12:00 +14°C° 0 mm 3 m/s 606 mmHg 46%
    13:00 +14°C° 0 mm 3 m/s 606 mmHg 48%
    14:00 +13°C° 0 mm 3 m/s 606 mmHg 49%
    15:00 +13°C° 0 mm 3 m/s 605 mmHg 51%
    16:00 +12°C° 0 mm 2 m/s 604 mmHg 61%
    17:00 +9°C° 0 mm 2 m/s 603 mmHg 71%
    18:00 +7°C° 0 mm 1 m/s 602 mmHg 81%
    19:00 +7°C° 0 mm 1 m/s 602 mmHg 77%
    20:00 +7°C° 0 mm 1 m/s 602 mmHg 72%
    21:00 +6°C° 0 mm 2 m/s 602 mmHg 68%
    22:00 +6°C° 0 mm 2 m/s 602 mmHg 68%
    23:00 +6°C° 0 mm 2 m/s 602 mmHg 69%

    Depois de amanhã, 25 Setembro, Quarta-feira

    Tempo Temperatura Precipitação Vento Pressão Humidade
    00:00 +6°C° 0 mm 2 m/s 601 mmHg 70%
    01:00 +6°C° 0 mm 2 m/s 601 mmHg 70%
    02:00 +6°C° 0 mm 2 m/s 601 mmHg 69%
    03:00 +6°C° 0 mm 2 m/s 601 mmHg 69%
    04:00 +6°C° 0 mm 2 m/s 601 mmHg 68%
    05:00 +6°C° 0 mm 2 m/s 601 mmHg 66%
    06:00 +6°C° 0 mm 2 m/s 601 mmHg 65%
    07:00 +8°C° 0 mm 2 m/s 603 mmHg 59%
    08:00 +12°C° 0 mm 2 m/s 604 mmHg 52%
    09:00 +14°C° 0 mm 2 m/s 605 mmHg 46%
    10:00 +14°C° 0 mm 3 m/s 605 mmHg 46%
    11:00 +16°C° 0 mm 3 m/s 606 mmHg 46%
    12:00 +17°C° 0 mm 3 m/s 606 mmHg 45%
    13:00 +17°C° 0 mm 3 m/s 606 mmHg 47%
    14:00 +17°C° 0 mm 3 m/s 606 mmHg 48%
    15:00 +16°C° 0 mm 3 m/s 605 mmHg 49%
    16:00 +13°C° 0 mm 3 m/s 605 mmHg 56%
    17:00 +12°C° 0 mm 2 m/s 604 mmHg 64%
    18:00 +9°C° 0 mm 2 m/s 603 mmHg 71%
    19:00 +9°C° 0 mm 2 m/s 603 mmHg 69%
    20:00 +8°C° 0 mm 2 m/s 603 mmHg 68%
    21:00 +8°C° 0 mm 2 m/s 603 mmHg 66%
    22:00 +8°C° 0 mm 2 m/s 603 mmHg 66%
    23:00 +8°C° 0 mm 2 m/s 603 mmHg 66%

    26 Setembro, Quinta-feira

    Tempo Temperatura Precipitação Vento Pressão Humidade
    00:00 +8°C° 0 mm 2 m/s 603 mmHg 66%
    01:00 +8°C° 0 mm 2 m/s 603 mmHg 66%
    02:00 +7°C° 0 mm 2 m/s 603 mmHg 67%
    03:00 +7°C° 0 mm 2 m/s 603 mmHg 67%
    04:00 +7°C° 0 mm 2 m/s 603 mmHg 67%
    05:00 +7°C° 0 mm 2 m/s 603 mmHg 68%
    06:00 +7°C° 0 mm 2 m/s 603 mmHg 68%
    07:00 +10°C° 0 mm 2 m/s 604 mmHg 63%
    08:00 +13°C° 0 mm 2 m/s 605 mmHg 59%
    09:00 +14°C° 0 mm 3 m/s 606 mmHg 54%
    10:00 +15°C° 0 mm 4 m/s 606 mmHg 51%
    11:00 +17°C° 0 mm 4 m/s 606 mmHg 48%
    12:00 +17°C° 0 mm 5 m/s 606 mmHg 46%
    13:00 +17°C° 0 mm 4 m/s 606 mmHg 46%
    14:00 +17°C° 0 mm 4 m/s 606 mmHg 46%
    15:00 +17°C° 0 mm 3 m/s 605 mmHg 46%
    16:00 +14°C° 0 mm 3 m/s 605 mmHg 55%
    17:00 +13°C° 0 mm 2 m/s 604 mmHg 63%
    18:00 +11°C° 0 mm 1 m/s 603 mmHg 72%
    19:00 +11°C° 0 mm 1 m/s 603 mmHg 73%
    20:00 +9°C° 0 mm 2 m/s 603 mmHg 75%
    21:00 +9°C° 0 mm 2 m/s 603 mmHg 77%
    22:00 +9°C° 0 mm 2 m/s 603 mmHg 79%
    23:00 +8°C° 0 mm 2 m/s 603 mmHg 82%

    27 Setembro, Sexta-feira

    Tempo Temperatura Precipitação Vento Pressão Humidade
    00:00 +8°C° 0 mm 2 m/s 603 mmHg 85%
    01:00 +8°C° 0 mm 2 m/s 603 mmHg 84%
    02:00 +8°C° 0 mm 2 m/s 602 mmHg 84%
    03:00 +8°C° 0 mm 2 m/s 602 mmHg 84%
    04:00 +8°C° 0 mm 2 m/s 602 mmHg 84%
    05:00 +8°C° 0 mm 2 m/s 602 mmHg 83%
    06:00 +8°C° 0 mm 2 m/s 602 mmHg 83%
    07:00 +10°C° 0 mm 2 m/s 603 mmHg 77%
    08:00 +13°C° 0 mm 2 m/s 604 mmHg 71%
    09:00 +16°C° 0 mm 2 m/s 605 mmHg 64%
    10:00 +16°C° 0 mm 3 m/s 606 mmHg 61%
    11:00 +17°C° 0 mm 3 m/s 606 mmHg 58%
    12:00 +18°C° 0 mm 3 m/s 606 mmHg 54%
    13:00 +18°C° 0 mm 3 m/s 606 mmHg 54%
    14:00 +18°C° 0 mm 3 m/s 605 mmHg 53%
    15:00 +18°C° 0 mm 3 m/s 605 mmHg 53%
    16:00 +16°C° 0 mm 2 m/s 604 mmHg 60%
    17:00 +14°C° 0 mm 2 m/s 603 mmHg 68%
    18:00 +12°C° 0 mm 1 m/s 603 mmHg 75%
    19:00 +12°C° 0 mm 1 m/s 603 mmHg 75%
    20:00 +12°C° 0 mm 1 m/s 603 mmHg 75%
    21:00 +12°C° 0 mm 1 m/s 603 mmHg 75%
    22:00 +12°C° 0 mm 1 m/s 603 mmHg 77%
    23:00 +12°C° 0 mm 1 m/s 603 mmHg 80%

    28 Setembro, Sábado

    Tempo Temperatura Precipitação Vento Pressão Humidade
    00:00 +12°C° 0 mm 1 m/s 603 mmHg 82%
    01:00 +11°C° 0 mm 1 m/s 602 mmHg 84%
    02:00 +10°C° 0 mm 1 m/s 602 mmHg 86%
    03:00 +10°C° 0 mm 1 m/s 601 mmHg 88%
    04:00 +9°C° 0 mm 2 m/s 601 mmHg 88%
    05:00 +8°C° 0 mm 2 m/s 601 mmHg 87%
    06:00 +8°C° 0 mm 2 m/s 601 mmHg 87%
    07:00 +12°C° 0 mm 2 m/s 601 mmHg 79%
    08:00 +13°C° 0 mm 3 m/s 602 mmHg 70%
    09:00 +16°C° 0 mm 3 m/s 603 mmHg 62%
    10:00 +14°C° 0.6 mm 3 m/s 603 mmHg 70%
    11:00 +13°C° 0.6 mm 3 m/s 603 mmHg 78%
    12:00 +12°C° 0.6 mm 3 m/s 602 mmHg 86%
    13:00 +11°C° 1.2 mm 3 m/s 602 mmHg 84%
    14:00 +11°C° 1.2 mm 3 m/s 602 mmHg 82%
    15:00 +11°C° 1.2 mm 3 m/s 602 mmHg 80%
    16:00 +10°C° 0.1 mm 2 m/s 602 mmHg 83%
    17:00 +8°C° 0.1 mm 2 m/s 602 mmHg 86%
    18:00 +8°C° 0.1 mm 1 m/s 602 mmHg 89%
    19:00 +8°C° 0 mm 1 m/s 602 mmHg 89%
    20:00 +7°C° 0 mm 2 m/s 602 mmHg 89%
    21:00 +6°C° 0 mm 2 m/s 603 mmHg 90%
    22:00 +7°C° 0 mm 1 m/s 603 mmHg 89%
    23:00 +7°C° 0 mm 1 m/s 603 mmHg 88%
    Mostrar mais